EW5004 Weather Reports


Display with metric or nautical units.
time (UTC)temp
F
wind
direction
speed
MPH
gust
MPH
rain 1hr
in
rain 24hr
in
rain mn
in
humidity
%
barometer
mb
20260508011540 48 39 3.0 6.0 0.00 0.00 0.00 49 1012.0
20260508010048 49 30 2.0 4.0 0.00 0.00 0.00 58 1011.7
20260508004543 49 338 1.0 6.0 0.00 0.00 0.00 57 1011.5
20260508003026 49 355 2.0 6.0 0.00 0.00 0.00 57 1011.4
20260508001532 50 5 3.0 7.0 0.00 0.00 0.00 55 1011.3
20260508000018 50 295 2.0 7.0 0.00 0.00 0.00 53 1011.2
20260507234514 50 360 2.0 10.0 0.00 0.00 0.00 54 1011.1
20260507233010 51 329 2.0 8.0 0.00 0.00 0.00 57 1011.2
20260507231505 51 69 6.0 14.0 0.00 0.00 0.00 58 1011.3
20260507230112 52 11 5.0 11.0 0.00 0.00 0.00 55 1011.3
20260507224559 53 19 3.0 16.0 0.00 0.00 0.00 51 1011.1
20260507223052 53 339 6.0 12.0 0.00 0.00 0.00 52 1011.1
20260507221548 52 327 6.0 13.0 0.00 0.00 0.00 50 1011.1
20260507220047 54 327 3.0 15.0 0.00 0.00 0.00 46 1011.0
20260507214538 53 296 4.0 13.0 0.00 0.00 0.00 48 1010.9
20260507213034 54 326 7.0 18.0 0.00 0.00 0.00 45 1010.8
20260507211530 54 317 5.0 13.0 0.00 0.00 0.00 45 1010.8
20260507210026 53 332 7.0 14.0 0.00 0.00 0.00 47 1010.7
20260507204521 53 74 8.0 16.0 0.00 0.00 0.00 46 1010.8
20260507203031 54 294 7.0 16.0 0.00 0.00 0.00 43 1010.7
20260507201515 54 323 6.0 15.0 0.00 0.00 0.00 44 1011.0
20260507200007 54 59 7.0 15.0 0.00 0.00 0.00 45 1011.1
20260507194503 55 360 4.0 13.0 0.00 0.00 0.00 45 1011.1
20260507193103 54 324 6.0 14.0 0.00 0.00 0.00 46 1011.2
20260507191554 55 58 3.0 9.0 0.00 0.00 0.00 47 1011.3
20260507190056 54 316 4.0 13.0 0.00 0.00 0.00 47 1011.3
20260507184549 54 360 4.0 11.0 0.00 0.00 0.00 49 1011.4
20260507183041 54 329 6.0 11.0 0.00 0.00 0.00 49 1011.4
20260507181537 53 55 6.0 15.0 0.00 0.00 0.00 51 1011.4
20260507180037 53 355 6.0 12.0 0.00 0.00 0.00 53 1011.5
20260507174539 53 280 7.0 14.0 0.00 0.00 0.00 53 1011.6
20260507173047 54 5 6.0 11.0 0.00 0.00 0.00 54 1011.7
20260507171525 54 108 4.0 10.0 0.00 0.00 0.00 56 1011.7
20260507170015 53 334 6.0 12.0 0.00 0.00 0.00 53 1011.7
20260507164513 53 78 7.0 13.0 0.00 0.00 0.00 53 1011.6
20260507163005 54 30 6.0 14.0 0.00 0.00 0.00 48 1011.6
20260507161501 54 24 6.0 17.0 0.00 0.00 0.00 50 1011.7
20260507154554 55 42 4.0 10.0 0.00 0.00 0.00 52 1011.9
20260507153054 54 310 3.0 10.0 0.00 0.00 0.00 54 1011.9
20260507151544 54 360 1.0 11.0 0.00 0.00 0.00 55 1012.0
20260507150043 54 299 3.0 8.0 0.00 0.00 0.00 56 1012.1
20260507144535 53 321 0.0 6.0 0.00 0.00 0.00 55 1012.1
20260507143035 52 53 2.0 8.0 0.00 0.00 0.00 52 1012.1
20260507141537 52 309 2.0 6.0 0.00 0.00 0.00 52 1012.4
20260507140023 51 336 4.0 7.0 0.00 0.00 0.00 54 1012.5
20260507134518 51 304 3.0 7.0 0.00 0.00 0.00 51 1012.6
20260507133018 50 323 2.0 6.0 0.00 0.00 0.00 47 1012.6
20260507131513 48 299 1.0 5.0 0.00 0.00 0.00 39 1012.7
20260507130004 46 279 1.0 4.0 0.00 0.00 0.00 27 1012.8
20260507124608 45 244 0.0 3.0 0.00 0.00 0.00 19 1012.7
20260507123057 44 248 1.0 5.0 0.00 0.00 0.00 17 1012.7
20260507121552 43 248 2.0 5.0 0.00 0.00 0.00 16 1012.6
20260507120047 42 259 1.0 5.0 0.00 0.00 0.00 14 1012.7
20260507114558 41 248 1.0 6.0 0.00 0.00 0.00 9 1012.6
20260507113040 40 232 2.0 7.0 0.00 0.00 0.00 6 1012.5
20260507111534 39 235 2.0 6.0 0.00 0.00 0.00 2 1012.4
20260507110038 38 241 3.0 6.0 0.00 0.00 0.00 3 1012.3
20260507104529 37 240 1.0 5.0 0.00 0.00 0.00 3 1012.3
20260507103028 37 244 1.0 6.0 0.00 0.00 0.00 2 1012.1
20260507101529 37 246 2.0 6.0 0.00 0.00 0.00 2 1012.1
20260507100020 37 244 3.0 8.0 0.00 0.00 0.00 2 1012.0
20260507094508 37 237 4.0 7.0 0.00 0.00 0.00 2 1011.9
20260507093005 37 240 3.0 6.0 0.00 0.00 0.00 3 1012.0
20260507091601 37 239 3.0 7.0 0.00 0.00 0.00 3 1012.0
20260507090057 38 249 2.0 6.0 0.00 0.00 0.00 4 1012.1
20260507084554 38 242 3.0 7.0 0.00 0.00 0.00 4 1012.1
20260507083047 38 246 1.0 5.0 0.00 0.00 0.00 4 1012.2
20260507081644 38 237 3.0 6.0 0.00 0.00 0.00 3 1012.2
20260507080038 38 242 2.0 5.0 0.00 0.00 0.00 2 1012.2
20260507074533 38 234 3.0 6.0 0.00 0.00 0.00 100 1012.4
20260507073028 38 275 3.0 7.0 0.00 0.00 0.00 100 1012.4
20260507071526 38 232 2.0 3.0 0.00 0.00 0.00 100 1012.4
20260507070028 38 228 0.0 2.0 0.00 0.00 0.00 100 1012.5
20260507064517 39 229 1.0 2.0 0.00 0.00 0.00 100 1012.5
20260507063011 40 229 1.0 4.0 0.00 0.00 0.00 100 1012.7
20260507061507 40 229 2.0 5.0 0.00 0.00 0.00 100 1012.8
20260507060003 40 227 0.0 2.0 0.00 0.00 0.00 100 1012.9
20260507054558 41 227 0.0 1.0 0.00 0.00 0.00 1 1013.1
20260507053113 41 227 0.0 4.0 0.00 0.00 0.00 3 1013.2
20260507051550 41 225 1.0 4.0 0.00 0.00 0.00 1 1013.2
20260507050044 41 242 0.0 3.0 0.00 0.00 0.00 1 1013.3
20260507044555 41 243 1.0 3.0 0.00 0.00 0.00 100 1013.3
20260507043036 41 243 0.0 3.0 0.00 0.00 0.00 100 1013.4
20260507041531 41 246 1.0 3.0 0.00 0.00 0.00 100 1013.6
20260507040026 41 261 1.0 3.0 0.00 0.00 0.00 100 1013.6
20260507034522 41 327 0.0 0.0 0.00 0.00 0.00 2 1013.6
20260507033026 42 327 0.0 0.0 0.00 0.00 0.00 6 1013.7
20260507031514 42 328 0.0 2.0 0.00 0.00 0.00 9 1013.7
20260507030010 43 329 0.0 0.0 0.00 0.00 0.00 15 1013.6
20260507024508 43 329 0.0 0.0 0.00 0.00 0.00 17 1013.5
20260507023001 43 329 0.0 1.0 0.00 0.00 0.00 18 1013.5
20260507021559 44 329 0.0 2.0 0.00 0.00 0.00 20 1013.3
20260507020100 44 330 0.0 2.0 0.00 0.00 0.00 26 1013.4
20260507014555 45 335 0.0 1.0 0.00 0.00 0.00 36 1013.3
20260507013044 45 336 0.0 0.0 0.00 0.00 0.00 52 1013.4